Hourly Data Report for August 08, 2020

LYTTON RCS
BRITISH COLUMBIA
Current Station Operator: ECCC - MSC

50°13'28.000" N
121°34'55.000" W
225.00 m
1114746
71765
VLY

Download Data

Hourly Data (August 2020)
Hourly Data Report for August 8, 2020
TIME Temp Definition
°C
Dew Point Definition
°C
Rel Hum Definition
%
Wind Dir Definition
10's deg

Wind Spd Definition
km/h
Visibility Definition
km
Stn Press Definition
kPa
Hmdx Definition


Wind Chill Definition


Weather Definition


00:00 16.3 8.3 59 20 23   99.02     LegendNANA
01:00 16.0 8.4 61 19 24   99.01     LegendNANA
02:00 15.8 8.8 63 19 24   99.03     LegendNANA
03:00 15.6 9.0 65 18 20   99.10     LegendNANA
04:00 14.6 8.8 68 0 1   99.15     LegendNANA
05:00 13.4 9.1 75 33 3   99.19     LegendNANA
06:00 13.3 8.2 71 2 4   99.25     LegendNANA
07:00 14.1 8.8 71 5 5   99.25     LegendNANA
08:00 17.6 9.7 60 16 20   99.22     LegendNANA
09:00 20.5 9.0 48 18 27   99.16     LegendNANA
10:00 22.1 7.4 39 18 28   99.12     LegendNANA
11:00 23.6 7.2 35 18 25   99.07     LegendNANA
12:00 24.7 7.3 33 18 28   99.03 25   LegendNANA
13:00 23.5 7.0 35 18 24   98.99     LegendNANA
14:00 25.7 7.4 31 18 18   98.95 26   LegendNANA
15:00 24.7 5.9 30 18 26   98.92     LegendNANA
16:00 25.6 6.2 29 18 29   98.90 25   LegendNANA
17:00 24.4 6.8 32 19 33   98.92     LegendNANA
18:00 22.2 7.8 40 19 21   98.99     LegendNANA
19:00 21.1 8.5 45 19 25   99.07     LegendNANA
20:00 20.0 8.7 48 20 25   99.18     LegendNANA
21:00 19.2 8.9 51 19 24   99.28     LegendNANA
22:00 18.6 9.3 55 18 28   99.35     LegendNANA
23:00 18.1 9.4 57 17 21   99.44     LegendNANA

Notes on Data Quality.

Legend

  • E = Estimated
  • M = Missing
  • NA = Not Available*
  • [empty] = Indicates an unobserved value
Date modified: